Weather History for Monett, MO

Change the Weather History Date:

Monday, February 11, 2013

  Actual Average (KJLN) Record (KJLN)
Temperature  
Mean Temperature 39 °F 39 °F  
Max Temperature 48 °F 49 °F 72 °F (1951)
Min Temperature 30 °F 28 °F -8 °F (1981)
Degree Days  
Heating Degree Days 26 26  
Month to date heating degree days 303  
Since 1 July heating degree days 2852  
Cooling Degree Days 0 0  
Month to date cooling degree days 0  
Year to date cooling degree days 0  
Moisture  
Dew Point 26 °F    
Average Humidity 65    
Maximum Humidity 86    
Minimum Humidity 37    
Precipitation  
Precipitation 0.00 in 0.09 in 1.33 in (2009)
Month to date precipitation 0.81  
Year to date precipitation 2.84  
Sea Level Pressure  
Sea Level Pressure 30.11 in    
Wind  
Wind Speed 7 mph (WNW)    
Max Wind Speed 12 mph    
Max Gust Speed 17 mph    
Visibility 10 miles    
Events      
T = Trace of Precipitation, MM = Missing Value Source: NWS Daily Summary

Daily Weather History Graph

Daily Weather History Graph

Search for Another Location

Airport:

Trip Planner

Search our weather history database for the weather conditions in past years. The results will help you decide how hot, cold, wet, or windy it might be!

Date:

Astronomy

Feb. 11, 2013 Rise Set
Actual Time 7:08 AM CST 5:52 PM CST
Civil Twilight 6:41 AM CST 6:19 PM CST
Nautical Twilight 6:11 AM CST 6:49 PM CST
Astronomical Twilight 5:41 AM CST 7:19 PM CST
Moon 7:37 AM CST (2/11) 7:45 PM CST (2/11)
Length of Visible Light 11h 37m
Length of Day
10h 43m
Waxing Crescent, 3% of the Moon is Illuminated
Feb 11
Waxing Crescent
Feb 17
First Quarter
Feb 25
Full
Mar 4
Last Quarter
Mar 11
New

Hourly Weather History & Observations

Time (CST) Temp. Windchill Dew Point Humidity Pressure Visibility Wind Dir Wind Speed Gust Speed Precip Events Conditions
12:15 AM 37.4 °F 29.8 °F 26.6 °F 65% 30.03 in 10.0 mi West 11.5 mph 17.3 mph N/A   Clear
12:35 AM 35.6 °F 28.0 °F 26.6 °F 70% 30.03 in 10.0 mi West 10.4 mph - N/A   Clear
12:55 AM 35.6 °F 27.5 °F 26.6 °F 70% 30.03 in 10.0 mi West 11.5 mph - N/A   Clear
1:15 AM 35.6 °F 28.6 °F 26.6 °F 70% 30.02 in 10.0 mi West 9.2 mph - N/A   Clear
1:35 AM 35.6 °F 28.0 °F 26.6 °F 70% 30.02 in 10.0 mi WNW 10.4 mph - N/A   Clear
1:55 AM 35.6 °F 28.6 °F 26.6 °F 70% 30.03 in 10.0 mi West 9.2 mph - N/A   Clear
2:15 AM 33.8 °F 27.0 °F 26.6 °F 75% 30.03 in 10.0 mi West 8.1 mph - N/A   Clear
2:35 AM 33.8 °F 26.4 °F 26.6 °F 75% 30.03 in 10.0 mi West 9.2 mph - N/A   Clear
2:55 AM 33.8 °F 26.4 °F 26.6 °F 75% 30.02 in 10.0 mi WNW 9.2 mph - N/A   Clear
3:15 AM 33.8 °F 27.0 °F 26.6 °F 75% 30.02 in 10.0 mi WNW 8.1 mph - N/A   Clear
3:35 AM 33.8 °F 25.8 °F 26.6 °F 75% 30.02 in 10.0 mi WNW 10.4 mph - N/A   Clear
3:55 AM 33.8 °F 25.3 °F 26.6 °F 75% 30.03 in 10.0 mi WNW 11.5 mph - N/A   Clear
4:15 AM 33.8 °F 27.7 °F 26.6 °F 75% 30.05 in 10.0 mi West 6.9 mph - N/A   Clear
4:35 AM 32.0 °F 26.4 °F 26.6 °F 80% 30.06 in 10.0 mi WSW 5.8 mph - N/A   Clear
4:55 AM 32.0 °F 26.4 °F 24.8 °F 75% 30.07 in 10.0 mi West 5.8 mph - N/A   Clear
5:15 AM 32.0 °F 25.6 °F 26.6 °F 80% 30.08 in 10.0 mi West 6.9 mph - N/A   Clear
5:35 AM 32.0 °F 25.6 °F 26.6 °F 80% 30.09 in 10.0 mi West 6.9 mph - N/A   Clear
5:55 AM 32.0 °F 27.5 °F 26.6 °F 80% 30.10 in 10.0 mi WSW 4.6 mph - N/A   Clear
6:15 AM 30.2 °F 24.3 °F 26.6 °F 86% 30.12 in 10.0 mi WSW 5.8 mph - N/A   Clear
6:35 AM 32.0 °F 25.6 °F 26.6 °F 80% 30.12 in 10.0 mi West 6.9 mph - N/A   Clear
6:55 AM 32.0 °F 27.5 °F 24.8 °F 75% 30.12 in 10.0 mi WSW 4.6 mph - N/A   Clear
7:15 AM 30.2 °F 25.4 °F 24.8 °F 80% 30.12 in 10.0 mi West 4.6 mph - N/A   Clear
7:35 AM 32.0 °F 26.4 °F 26.6 °F 80% 30.12 in 10.0 mi West 5.8 mph - N/A   Clear
7:55 AM 32.0 °F 26.4 °F 26.6 °F 80% 30.13 in 10.0 mi West 5.8 mph - N/A   Clear
8:15 AM 32.0 °F 27.5 °F 26.6 °F 80% 30.15 in 10.0 mi West 4.6 mph - N/A   Clear
8:35 AM 33.8 °F 27.7 °F 26.6 °F 75% 30.15 in 10.0 mi WNW 6.9 mph - N/A   Clear
8:55 AM 33.8 °F 27.7 °F 26.6 °F 75% 30.16 in 10.0 mi NW 6.9 mph - N/A   Clear
9:15 AM 33.8 °F 28.6 °F 26.6 °F 75% 30.17 in 10.0 mi NW 5.8 mph - N/A   Clear
9:35 AM 35.6 °F 29.2 °F 26.6 °F 70% 30.18 in 10.0 mi NW 8.1 mph - N/A   Clear
9:55 AM 35.6 °F 28.6 °F 26.6 °F 70% 30.18 in 10.0 mi NW 9.2 mph - N/A   Clear
10:15 AM 37.4 °F 32.1 °F 26.6 °F 65% 30.18 in 10.0 mi NW 6.9 mph - N/A   Clear
10:35 AM 37.4 °F 31.4 °F 26.6 °F 65% 30.18 in 10.0 mi NW 8.1 mph - N/A   Clear
10:55 AM 39.2 °F 33.0 °F 28.4 °F 65% 30.18 in 10.0 mi NW 9.2 mph - N/A   Clear
11:15 AM 41.0 °F 37.1 °F 28.4 °F 61% 30.18 in 10.0 mi WNW 5.8 mph - N/A   Clear
11:35 AM 41.0 °F 36.4 °F 26.6 °F 57% 30.18 in 10.0 mi West 6.9 mph - N/A   Clear
11:55 AM 41.0 °F 38.0 °F 26.6 °F 57% 30.17 in 10.0 mi WSW 4.6 mph - N/A   Clear
12:15 PM 42.8 °F 40.1 °F 28.4 °F 57% 30.16 in 10.0 mi WSW 4.6 mph - N/A   Clear
12:35 PM 42.8 °F 40.1 °F 28.4 °F 57% 30.16 in 10.0 mi WNW 4.6 mph - N/A   Clear
12:55 PM 44.6 °F 40.2 °F 26.6 °F 49% 30.15 in 10.0 mi WNW 8.1 mph - N/A   Clear
1:15 PM 44.6 °F 40.2 °F 26.6 °F 49% 30.14 in 10.0 mi NW 8.1 mph - N/A   Clear
1:35 PM 44.6 °F 40.2 °F 26.6 °F 49% 30.14 in 10.0 mi West 8.1 mph - N/A   Clear
1:55 PM 46.4 °F 43.5 °F 26.6 °F 46% 30.14 in 10.0 mi WNW 5.8 mph - N/A   Clear
2:15 PM 46.4 °F 44.3 °F 26.6 °F 46% 30.13 in 10.0 mi NW 4.6 mph - N/A   Clear
2:35 PM 46.4 °F 45.2 °F 26.6 °F 46% 30.12 in 10.0 mi West 3.5 mph - N/A   Clear
2:55 PM 46.4 °F - 26.6 °F 46% 30.12 in 10.0 mi Calm Calm - N/A   Clear
3:15 PM 46.4 °F - 26.6 °F 46% 30.12 in 10.0 mi Calm Calm - N/A   Clear
3:35 PM 48.2 °F - 26.6 °F 43% 30.11 in 10.0 mi WNW 3.5 mph - N/A   Clear
3:55 PM 48.2 °F - 23.0 °F 37% 30.11 in 10.0 mi Calm Calm - N/A   Clear
4:55 PM 46.4 °F 42.9 °F 24.8 °F 43% 30.10 in 10.0 mi NNW 6.9 mph - N/A   Clear
5:15 PM 46.4 °F 43.5 °F 24.8 °F 43% 30.10 in 10.0 mi NW 5.8 mph - N/A   Clear
5:35 PM 44.6 °F 43.1 °F 26.6 °F 49% 30.10 in 10.0 mi NNW 3.5 mph - N/A   Clear
5:55 PM 42.8 °F 40.1 °F 26.6 °F 53% 30.10 in 10.0 mi NNW 4.6 mph - N/A   Clear
6:15 PM 42.8 °F 41.1 °F 24.8 °F 49% 30.11 in 10.0 mi NNW 3.5 mph - N/A   Clear
6:35 PM 41.0 °F 38.0 °F 26.6 °F 57% 30.11 in 10.0 mi North 4.6 mph - N/A   Clear
6:55 PM 41.0 °F - 24.8 °F 53% 30.12 in 10.0 mi Calm Calm - N/A   Clear
7:15 PM 41.0 °F - 24.8 °F 53% 30.13 in 10.0 mi Calm Calm - N/A   Clear
7:55 PM 41.0 °F - 23.0 °F 49% 30.12 in 10.0 mi Calm Calm - N/A   Clear
8:15 PM 37.4 °F 34.9 °F 24.8 °F 60% 30.12 in 10.0 mi NE 3.5 mph - N/A   Clear
8:35 PM 35.6 °F - 24.8 °F 65% 30.13 in 10.0 mi Calm Calm - N/A   Clear
8:55 PM 37.4 °F - 24.8 °F 60% 30.13 in 10.0 mi Calm Calm - N/A   Clear
9:15 PM 35.6 °F - 24.8 °F 65% 30.13 in 10.0 mi Calm Calm - N/A   Clear
9:35 PM 35.6 °F - 24.8 °F 65% 30.14 in 10.0 mi Calm Calm - N/A   Clear
9:55 PM 33.8 °F 30.8 °F 24.8 °F 70% 30.14 in 10.0 mi NNE 3.5 mph - N/A   Clear
10:15 PM 33.8 °F 29.6 °F 24.8 °F 70% 30.13 in 10.0 mi NE 4.6 mph - N/A   Clear
10:55 PM 33.8 °F 30.8 °F 24.8 °F 70% 30.13 in 10.0 mi ENE 3.5 mph - N/A   Scattered Clouds
11:15 PM 33.8 °F - 26.6 °F 75% 30.14 in 10.0 mi Calm Calm - N/A   Clear
11:35 PM 33.8 °F - 26.6 °F 75% 30.15 in 10.0 mi Calm Calm - N/A   Clear
11:55 PM 33.8 °F - 26.6 °F 75% 30.15 in 10.0 mi Calm Calm - N/A   Clear